カタログに戻る

STARLINK-35190

運用中通信SSO
NORAD 65663·PAYLOAD·🇺🇸 United States

打ち上げ Sep 19, 2025 から Vandenberg Space Force Base

Loading…

次のパス (今後24時間)

TLE

最新Source: CelesTrak SupGP

元期: Sep 14, 2026, 21:24 UTC

1 65663C 25211M   26257.89215278  .00014151  00000+0  43972-3 0  2577
2 65663  97.2830 298.2420 0001266  86.4836  14.6207 15.33399350    16

AllMySatでSTARLINK-35190をリアルタイム追跡

Download on the App Store